Find Starlink 37303

NORAD ID: 68709 Int'l Des: 2026-081 Owner: SPXS Country: US Constellation: starlink operational
LEOCIRCULAR

現在のビュー

3D地球を読み込み中...

Starlink 37303について

説明を読み込み中...

次回通過

Passes for default location (London). Set your location on the main map for personalized predictions.

高度履歴

Loading altitude history...

軌道要素

1 68709U 26081L 26151.16668980 .00010654 00000-0 32613-3 0 9990
2 68709 53.1586 10.9641 0001311 89.9021 172.9664 15.34387899 5968
Epoch: May 31, 2026 • Age: 12 hours

現在のステータス

高度 466.3 km
速度 7.64 km/s
衛星直下点 43.66°N, 15.84°E
打ち上げ日 Apr 14, 2026
運用期間 0.1 years
タイプ internet

技術仕様

分類 Payload
質量 575.00 kg
乾燥質量 530.00 kg
総質量 575.00 kg
長さ 0.30 m
直径 4.10 m
スパン 29.00 m
形状 Box + pan
製造者 SPXS
バスタイプ Starlink V2MO
フェーズステータス In Orbit
所有者/国 SPXS/US

Most Searched